Regional Weather Roundup
Issued by NWS

Home | Current Version | Previous Version | Graphics & Text | Print | Product List | Glossary Off
Versions: 1 2 3 4 5 6 7 8 9 10 11 12 13 14 15 16 17 18 19 20 21 22 23 24 25 26 27 28 29 30 31 32 33 34 35 36 37 38 39 40 41 42 43 44 45 46 47 48 49 50

000
ASUS45 KCYS 270610
RWRWY

WYOMING REGIONAL WEATHER ROUNDUP
NATIONAL WEATHER SERVICE CHEYENNE WY
1200 AM MDT WED MAY 27 2015

NOTE:  "FAIR" INDICATES FEW OR NO CLOUDS BELOW 12,000 FEET
WITH NO SIGNIFICANT WEATHER AND/OR OBSTRUCTIONS TO VISIBILITY.

WYZ001-270700-
YELLOWSTONE NATIONAL PARK

CITY           SKY/WX    TMP DP  RH WIND       PRES   REMARKS
LK YELLOWSTONE   N/A     34  32  92 NW3       30.14S
6HR MIN TEMP:  34; 6HR MAX TEMP:  44;

W YELLOWSTONE  NOT AVBL

$$
WYZ002>013-054>058-071-098>099-270700-
NORTHERN WYOMING

CITY           SKY/WX    TMP DP  RH WIND       PRES   REMARKS
JACKSON        FAIR      41  41 100 CALM      30.10S
CODY           MOCLDY    52  48  87 S8        30.00F
GREYBULL       FAIR      57  47  69 W14       29.95S
6HR MIN TEMP:  57; 6HR MAX TEMP:  68; 6HR PCP: TRACE;

WORLAND        CLOUDY    56  50  80 S9        29.97R
6HR MIN TEMP:  54; 6HR MAX TEMP:  70;

SHERIDAN       FAIR      50  46  86 NE3       29.99S
6HR MIN TEMP:  48; 6HR MAX TEMP:  66; 6HR PCP: TRACE;

BUFFALO        CLOUDY    52  48  86 N5        30.02S
6HR MIN TEMP:  52; 6HR MAX TEMP:  65; 6HR PCP: TRACE;

GILLETTE       FAIR      52  47  83 SE5       29.99R
6HR MIN TEMP:  51; 6HR MAX TEMP:  62; 6HR PCP: TRACE;

HULETT         FAIR      55  46  71 CALM      30.01R
NEWCASTLE      FAIR      54  45  71 S10       30.04R

$$
WYZ014>020-022>026-101>103-270700-
CENTRAL WYOMING

CITY           SKY/WX    TMP DP  RH WIND       PRES   REMARKS
BIG PINEY      LGT RAIN  47  45  93 S3        30.12R
6HR MIN TEMP:  46; 6HR MAX TEMP:  52; 6HR PCP: TRACE;

PINEDALE       CLOUDY    45  43  93 CALM      30.13R
DUBOIS         CLOUDY    45  36  70 NW9       30.07F
LANDER         FAIR      50  43  77 SE5       30.00S
6HR MIN TEMP:  50; 6HR MAX TEMP:  64; 6HR PCP: TRACE;

RIVERTON       CLOUDY    54  47  77 E6        30.03R
6HR MIN TEMP:  54; 6HR MAX TEMP:  64; 6HR PCP: TRACE;

CASPER         CLOUDY    52  48  86 SW6       30.03F
6HR MIN TEMP:  51; 6HR MAX TEMP:  67; 6HR PCP:  0.06;

DOUGLAS        CLOUDY    53  49  86 W3        30.05S
6HR MIN TEMP:  53; 6HR MAX TEMP:  68; 6HR PCP:  0.06;


$$
WYZ021-027>030-104>119-270700-
SOUTHERN WYOMING

CITY           SKY/WX    TMP DP  RH WIND       PRES   REMARKS
EVANSTON       FAIR      42  39  89 SW9       30.14S
6HR MIN TEMP:  42; 6HR MAX TEMP:  51; 6HR PCP: TRACE;

KEMMERER       CLOUDY    41  41 100 W3        30.15R
FORT BRIDGER   CLEAR     45  45 100 SW8       30.17R
ROCK SPRINGS   FAIR      47  42  83 SW6       30.12S
6HR MIN TEMP:  47; 6HR MAX TEMP:  51; 6HR PCP: TRACE;

DIXON          CLOUDY    49  45  87 CALM      30.16F
RAWLINS        CLOUDY    47  43  86 SW3       30.11F
6HR MIN TEMP:  46; 6HR MAX TEMP:  63; 6HR PCP:  0.10;

SARATOGA       CLOUDY    46  41  81 SW8       30.15S
LARAMIE        CLOUDY    48  41  76 S9        30.14R
6HR MIN TEMP:  45; 6HR MAX TEMP:  56; 6HR PCP: TRACE;

CHEYENNE       FAIR      49  45  86 SW7       30.11R
6HR MIN TEMP:  49; 6HR MAX TEMP:  61; 6HR PCP: TRACE;

TORRINGTON     LGT RAIN  55  52  89 N8        30.04S
6HR MIN TEMP:  55; 6HR MAX TEMP:  68; 6HR PCP:  0.18;

PINE BLUFFS    FAIR      52  46  82 S8        30.08R

$$



USA.gov is the U.S. government's official web portal to all federal, state and local government web resources and services.